Location: Unspecified
(0.0000°N, 0.0000°E)
Time: 14:37:04
(UTC+00:00)

STARLINK-35385 - Pass Details

Date: 23 February 2026
Orbit: 474 x 476 km, 53.2° (Epoch: 14 March)

Event Time Altitude Azimuth Distance (km) Brightness Sun altitude
Rises 19:43:31 0° 248° (WSW) 2,513 7.4 -22.2°
Reaches altitude 10° 19:46:43 10° 278° (W) 1,631 6.0 -23.0°
Maximum altitude 19:48:22 13° 304° (NW) 1,475 5.3 -23.4°
Drops below altitude 10° 19:50:01 10° 331° (NNW) 1,627 5.2 -23.8°
Enters shadow 19:50:55 - 343° (NNW) 1,820 5.3 -24.0°
